Precipitable_Water
1.19 1.18 1.20 1.17 1.14 1.10 1.07 1.09 1.11 1.15 1.14 1.14 1.10 1.09 1.11 1.15 1.14 1.13 1.17 1.15 1.18 1.19 1.19 1.21 1.23 1.23 1.23 1.23 1.24 1.24 1.22 1.23 1.28 1.29 1.29 1.31 1.36 1.35 1.33 1.29 1.23 1.24 1.26 1.26 1.27 1.27 1.28 1.27 1.26 1.22 1.15 1.05 1.11 1.19 1.20 1.22 1.22 1.18 1.16 1.12 1.08 1.09 1.05 0.99 0.92 0.92 1.07 1.26 1.24 1.22 1.30 1.31 1.30 1.33 1.30 1.31 1.31 1.33 1.33 1.33 1.33 1.30 1.30 1.30 1.28
1.17 1.15 1.16 1.14 1.10 1.07 1.07 1.09 1.11 1.14 1.12 1.11 1.08 1.08 1.07 1.10 1.14 1.17 1.14 1.14 1.17 1.19 1.20 1.22 1.24 1.24 1.25 1.24 1.24 1.26 1.27 1.26 1.26 1.25 1.23 1.23 1.29 1.36 1.35 1.31 1.26 1.23 1.24 1.22 1.25 1.26 1.27 1.26 1.28 1.29 1.30 1.20 1.09 1.07 1.12 1.15 1.18 1.14 1.11 1.09 1.06 1.05 1.09 0.99 0.95 0.92 0.87 1.11 1.18 1.26 1.26 1.32 1.21 1.34 1.29 1.28 1.28 1.31 1.30 1.33 1.37 1.36 1.32 1.31 1.28
1.17 1.17 1.16 1.13 1.09 1.07 1.07 1.06 1.08 1.10 1.08 1.08 1.05 1.06 1.06 1.06 1.13 1.12 1.11 1.14 1.18 1.17 1.20 1.22 1.22 1.22 1.23 1.24 1.24 1.25 1.26 1.27 1.30 1.27 1.24 1.22 1.22 1.28 1.32 1.31 1.28 1.24 1.23 1.21 1.22 1.26 1.26 1.25 1.24 1.28 1.32 1.26 1.22 1.14 1.10 1.09 1.13 1.11 1.08 1.08 1.04 1.04 1.07 1.05 0.97 0.90 0.88 0.92 1.13 1.17 1.19 1.25 1.20 1.23 1.31 1.33 1.34 1.36 1.32 1.31 1.32 1.36 1.36 1.36 1.32
1.24 1.19 1.15 1.14 1.14 1.13 1.10 1.09 1.08 1.07 1.05 1.05 1.02 1.04 1.07 1.06 1.09 1.09 1.09 1.12 1.13 1.16 1.17 1.19 1.24 1.23 1.20 1.20 1.22 1.24 1.24 1.25 1.26 1.28 1.24 1.23 1.21 1.22 1.27 1.29 1.29 1.29 1.27 1.27 1.27 1.26 1.24 1.24 1.24 1.25 1.26 1.23 1.23 1.24 1.23 1.16 1.11 1.11 1.10 1.09 1.06 1.03 1.04 1.05 1.02 0.94 0.92 0.87 0.96 1.06 1.16 1.17 1.22 1.27 1.30 1.34 1.34 1.35 1.35 1.37 1.41 1.37 1.36 1.39 1.37
1.29 1.21 1.15 1.10 1.13 1.13 1.12 1.13 1.11 1.08 1.05 1.05 1.03 1.05 1.06 1.06 1.06 1.05 1.08 1.08 1.11 1.14 1.16 1.18 1.18 1.22 1.19 1.17 1.17 1.18 1.20 1.21 1.20 1.22 1.25 1.24 1.22 1.21 1.25 1.29 1.28 1.28 1.28 1.30 1.31 1.30 1.28 1.26 1.27 1.29 1.26 1.21 1.21 1.20 1.22 1.20 1.18 1.14 1.10 1.11 1.09 1.08 1.08 1.07 1.04 1.02 0.94 0.89 0.90 1.01 1.10 1.15 1.20 1.23 1.27 1.21 1.25 1.31 1.37 1.36 1.36 1.37 1.38 1.40 1.41
1.42 1.30 1.20 1.11 1.08 1.08 1.08 1.11 1.10 1.09 1.08 1.08 1.06 1.06 1.07 1.06 1.05 1.06 1.08 1.07 1.09 1.13 1.14 1.16 1.14 1.13 1.18 1.18 1.17 1.15 1.18 1.20 1.20 1.18 1.20 1.22 1.22 1.22 1.23 1.26 1.27 1.26 1.26 1.28 1.29 1.31 1.28 1.28 1.29 1.31 1.28 1.23 1.20 1.20 1.21 1.19 1.19 1.17 1.13 1.13 1.13 1.14 1.12 1.11 1.10 1.06 1.01 0.95 0.92 0.92 1.04 1.08 1.12 1.16 1.22 1.22 1.18 1.19 1.25 1.33 1.37 1.40 1.40 1.40 1.41
1.54 1.42 1.30 1.17 1.08 1.04 1.04 1.05 1.08 1.10 1.12 1.12 1.13 1.13 1.10 1.09 1.09 1.06 1.08 1.09 1.10 1.12 1.16 1.17 1.18 1.14 1.13 1.18 1.19 1.18 1.18 1.20 1.21 1.21 1.21 1.22 1.21 1.18 1.17 1.19 1.23 1.24 1.23 1.22 1.24 1.26 1.27 1.28 1.29 1.30 1.27 1.24 1.21 1.20 1.20 1.20 1.19 1.16 1.15 1.14 1.16 1.15 1.13 1.13 1.12 1.08 1.05 1.01 0.99 0.98 0.95 1.04 1.10 1.10 1.22 1.27 1.25 1.23 1.18 1.20 1.23 1.34 1.39 1.37 1.36
1.59 1.53 1.43 1.28 1.15 1.06 1.05 1.05 1.08 1.11 1.13 1.15 1.14 1.13 1.12 1.10 1.10 1.12 1.13 1.11 1.13 1.15 1.16 1.16 1.18 1.19 1.16 1.16 1.19 1.23 1.23 1.21 1.21 1.22 1.22 1.21 1.20 1.17 1.15 1.13 1.14 1.17 1.18 1.19 1.19 1.20 1.22 1.24 1.25 1.27 1.26 1.25 1.22 1.21 1.22 1.18 1.19 1.15 1.17 1.16 1.15 1.14 1.12 1.12 1.13 1.11 1.07 1.04 1.01 0.98 0.99 0.96 1.04 1.13 1.22 1.26 1.21 1.22 1.23 1.17 1.12 1.19 1.27 1.35 1.36
1.62 1.59 1.53 1.41 1.28 1.18 1.12 1.10 1.10 1.11 1.13 1.14 1.13 1.12 1.12 1.11 1.11 1.14 1.17 1.15 1.16 1.17 1.19 1.20 1.18 1.19 1.21 1.20 1.19 1.22 1.24 1.22 1.21 1.19 1.17 1.17 1.18 1.15 1.14 1.13 1.12 1.11 1.12 1.13 1.16 1.18 1.19 1.20 1.21 1.22 1.23 1.24 1.24 1.23 1.21 1.20 1.17 1.11 1.13 1.14 1.12 1.11 1.10 1.12 1.11 1.11 1.09 1.06 1.04 1.07 1.04 1.00 0.99 1.01 1.04 1.07 1.06 1.04 1.12 1.17 1.14 1.20 1.28 1.31 1.38
1.61 1.62 1.58 1.52 1.48 1.39 1.26 1.16 1.13 1.12 1.12 1.11 1.11 1.12 1.13 1.13 1.13 1.15 1.17 1.17 1.16 1.17 1.17 1.20 1.21 1.18 1.19 1.22 1.23 1.23 1.22 1.23 1.20 1.16 1.15 1.12 1.13 1.15 1.17 1.15 1.12 1.11 1.09 1.10 1.13 1.16 1.16 1.17 1.17 1.17 1.18 1.20 1.22 1.21 1.20 1.20 1.20 1.15 1.11 1.11 1.10 1.10 1.09 1.08 1.08 1.08 1.07 1.04 1.02 1.03 1.00 0.99 1.00 1.00 0.99 1.03 1.09 1.14 1.14 1.16 1.12 1.18 1.25 1.27 1.34
1.53 1.58 1.59 1.61 1.60 1.54 1.44 1.30 1.20 1.14 1.13 1.11 1.11 1.11 1.12 1.15 1.16 1.17 1.18 1.20 1.18 1.18 1.18 1.16 1.20 1.23 1.20 1.19 1.20 1.21 1.21 1.20 1.18 1.16 1.14 1.13 1.15 1.15 1.14 1.14 1.14 1.14 1.13 1.10 1.07 1.09 1.13 1.17 1.19 1.20 1.20 1.21 1.22 1.22 1.20 1.19 1.19 1.18 1.18 1.18 1.16 1.12 1.08 1.06 1.06 1.08 1.05 1.02 1.04 1.05 1.01 0.99 1.03 1.07 1.03 1.02 1.08 1.07 1.07 1.11 1.11 1.16 1.17 1.15 1.12
1.50 1.53 1.59 1.65 1.65 1.61 1.56 1.48 1.35 1.23 1.20 1.16 1.13 1.12 1.13 1.14 1.16 1.17 1.19 1.20 1.22 1.22 1.20 1.17 1.19 1.24 1.25 1.21 1.19 1.19 1.20 1.20 1.18 1.16 1.14 1.14 1.15 1.16 1.17 1.18 1.18 1.17 1.15 1.14 1.13 1.13 1.14 1.17 1.20 1.22 1.23 1.22 1.21 1.21 1.21 1.21 1.20 1.20 1.20 1.20 1.19 1.19 1.18 1.12 1.06 1.06 1.07 1.03 1.01 1.01 1.01 0.99 1.03 1.09 1.07 1.07 1.04 1.06 1.08 1.11 1.12 1.12 1.14 1.15 1.17
1.55 1.54 1.58 1.62 1.65 1.67 1.64 1.58 1.50 1.40 1.31 1.25 1.23 1.20 1.17 1.17 1.18 1.20 1.20 1.21 1.23 1.23 1.23 1.25 1.25 1.26 1.29 1.26 1.21 1.21 1.20 1.22 1.22 1.21 1.19 1.19 1.18 1.19 1.19 1.19 1.20 1.21 1.22 1.20 1.20 1.20 1.19 1.18 1.20 1.24 1.26 1.26 1.28 1.29 1.28 1.26 1.26 1.25 1.23 1.22 1.21 1.21 1.21 1.21 1.19 1.12 1.11 1.07 1.02 0.99 1.01 1.02 1.03 1.05 1.11 1.10 1.12 1.05 1.09 1.10 1.11 1.14 1.17 1.17 1.20
1.59 1.58 1.60 1.61 1.63 1.67 1.68 1.64 1.59 1.53 1.46 1.39 1.36 1.31 1.27 1.24 1.25 1.28 1.30 1.31 1.29 1.30 1.35 1.37 1.38 1.36 1.34 1.33 1.32 1.32 1.31 1.35 1.35 1.33 1.31 1.29 1.29 1.29 1.28 1.30 1.32 1.34 1.36 1.37 1.36 1.34 1.32 1.29 1.26 1.25 1.29 1.31 1.30 1.30 1.30 1.31 1.31 1.30 1.30 1.30 1.27 1.26 1.26 1.24 1.21 1.21 1.23 1.16 1.10 1.03 1.06 1.12 1.04 1.06 1.16 1.22 1.16 1.10 1.10 1.08 1.12 1.13 1.17 1.19 1.27
1.57 1.60 1.60 1.63 1.66 1.66 1.67 1.67 1.64 1.63 1.60 1.53 1.47 1.42 1.37 1.35 1.35 1.37 1.38 1.34 1.31 1.31 1.36 1.38 1.39 1.38 1.37 1.38 1.38 1.38 1.39 1.42 1.43 1.44 1.45 1.46 1.47 1.48 1.48 1.47 1.45 1.44 1.46 1.50 1.52 1.51 1.51 1.50 1.47 1.44 1.44 1.45 1.45 1.43 1.41 1.39 1.38 1.35 1.33 1.33 1.35 1.35 1.34 1.29 1.25 1.24 1.23 1.22 1.18 1.14 1.15 1.20 1.18 1.19 1.24 1.28 1.24 1.22 1.21 1.17 1.17 1.18 1.23 1.34 1.40
1.55 1.57 1.58 1.62 1.64 1.64 1.62 1.63 1.65 1.67 1.66 1.62 1.57 1.51 1.48 1.45 1.43 1.45 1.43 1.40 1.40 1.40 1.39 1.37 1.35 1.36 1.39 1.40 1.37 1.36 1.42 1.46 1.45 1.46 1.47 1.50 1.53 1.56 1.57 1.56 1.53 1.53 1.53 1.56 1.58 1.60 1.61 1.60 1.56 1.54 1.53 1.52 1.55 1.58 1.57 1.57 1.54 1.48 1.44 1.44 1.48 1.52 1.51 1.49 1.47 1.43 1.37 1.32 1.28 1.25 1.23 1.25 1.27 1.29 1.31 1.33 1.33 1.34 1.35 1.36 1.36 1.33 1.29 1.25 1.23
1.51 1.53 1.53 1.55 1.60 1.64 1.63 1.59 1.60 1.63 1.65 1.62 1.57 1.55 1.52 1.51 1.52 1.53 1.44 1.40 1.38 1.37 1.33 1.32 1.34 1.37 1.39 1.40 1.37 1.35 1.39 1.46 1.49 1.51 1.52 1.56 1.59 1.60 1.62 1.62 1.59 1.57 1.56 1.61 1.64 1.65 1.66 1.66 1.63 1.59 1.57 1.55 1.58 1.61 1.61 1.64 1.60 1.54 1.51 1.49 1.51 1.53 1.50 1.55 1.61 1.62 1.59 1.54 1.49 1.44 1.41 1.40 1.39 1.40 1.41 1.41 1.41 1.41 1.38 1.29 1.22 1.28 1.22 1.16 1.20
1.48 1.52 1.50 1.52 1.57 1.63 1.66 1.64 1.58 1.59 1.61 1.58 1.56 1.55 1.55 1.55 1.52 1.53 1.43 1.36 1.32 1.31 1.33 1.35 1.37 1.37 1.36 1.36 1.38 1.36 1.37 1.45 1.50 1.55 1.59 1.64 1.67 1.67 1.68 1.66 1.62 1.61 1.64 1.73 1.76 1.75 1.74 1.75 1.76 1.73 1.69 1.67 1.71 1.73 1.74 1.75 1.68 1.64 1.60 1.57 1.55 1.49 1.46 1.55 1.64 1.67 1.68 1.66 1.63 1.59 1.57 1.53 1.50 1.47 1.45 1.45 1.46 1.47 1.38 1.21 1.23 1.29 1.21 1.19 1.14
1.40 1.46 1.49 1.54 1.58 1.61 1.64 1.65 1.62 1.57 1.53 1.55 1.59 1.58 1.55 1.52 1.52 1.52 1.46 1.41 1.36 1.37 1.39 1.37 1.37 1.39 1.40 1.40 1.43 1.43 1.45 1.51 1.55 1.58 1.64 1.70 1.75 1.78 1.77 1.74 1.68 1.69 1.74 1.77 1.82 1.82 1.81 1.84 1.85 1.85 1.83 1.81 1.83 1.83 1.83 1.82 1.75 1.71 1.69 1.68 1.59 1.51 1.45 1.58 1.65 1.63 1.65 1.67 1.68 1.70 1.67 1.67 1.64 1.59 1.53 1.49 1.49 1.48 1.44 1.38 1.39 1.31 1.22 1.21 1.21
1.35 1.47 1.52 1.55 1.59 1.61 1.64 1.62 1.62 1.60 1.56 1.58 1.62 1.63 1.66 1.64 1.59 1.54 1.51 1.48 1.43 1.42 1.42 1.40 1.38 1.40 1.44 1.47 1.48 1.50 1.50 1.55 1.61 1.64 1.68 1.74 1.79 1.83 1.84 1.77 1.69 1.72 1.79 1.78 1.75 1.78 1.81 1.83 1.87 1.90 1.91 1.91 1.92 1.92 1.90 1.89 1.83 1.80 1.81 1.72 1.60 1.47 1.60 1.79 1.76 1.73 1.74 1.74 1.72 1.74 1.72 1.73 1.72 1.67 1.62 1.58 1.53 1.50 1.46 1.45 1.42 1.36 1.27 1.23 1.23
1.28 1.38 1.47 1.52 1.55 1.59 1.64 1.64 1.63 1.66 1.68 1.66 1.69 1.71 1.70 1.65 1.64 1.60 1.56 1.57 1.54 1.49 1.46 1.47 1.47 1.48 1.52 1.54 1.54 1.56 1.59 1.61 1.69 1.73 1.77 1.80 1.82 1.82 1.81 1.78 1.78 1.82 1.82 1.81 1.79 1.77 1.78 1.83 1.88 1.90 1.92 1.92 1.92 1.93 1.94 1.92 1.91 1.89 1.86 1.75 1.67 1.70 1.86 1.80 1.74 1.80 1.77 1.73 1.71 1.70 1.70 1.72 1.72 1.69 1.65 1.62 1.57 1.54 1.51 1.49 1.47 1.43 1.35 1.28 1.23
1.19 1.29 1.38 1.44 1.52 1.58 1.62 1.68 1.71 1.72 1.75 1.76 1.73 1.72 1.76 1.74 1.69 1.66 1.65 1.62 1.58 1.54 1.53 1.52 1.52 1.55 1.60 1.64 1.65 1.66 1.73 1.75 1.78 1.81 1.83 1.84 1.85 1.85 1.81 1.80 1.85 1.85 1.79 1.76 1.75 1.74 1.76 1.82 1.84 1.88 1.90 1.88 1.87 1.88 1.89 1.90 1.90 1.91 1.85 1.85 1.88 1.88 1.86 1.88 1.87 1.83 1.79 1.75 1.71 1.67 1.65 1.64 1.64 1.65 1.64 1.62 1.60 1.58 1.57 1.53 1.50 1.48 1.45 1.40 1.33
1.17 1.23 1.32 1.38 1.45 1.53 1.61 1.66 1.70 1.75 1.76 1.78 1.77 1.75 1.79 1.76 1.73 1.72 1.68 1.65 1.61 1.58 1.57 1.56 1.53 1.52 1.58 1.65 1.72 1.76 1.82 1.87 1.88 1.86 1.86 1.85 1.84 1.85 1.85 1.87 1.89 1.90 1.80 1.72 1.72 1.77 1.86 1.87 1.88 1.90 1.91 1.91 1.91 1.90 1.90 1.90 1.89 1.84 1.83 1.86 1.86 1.87 1.89 1.88 1.86 1.85 1.78 1.74 1.70 1.63 1.59 1.57 1.55 1.56 1.58 1.58 1.61 1.66 1.68 1.66 1.61 1.57 1.53 1.51 1.49
1.17 1.21 1.26 1.33 1.41 1.48 1.58 1.66 1.71 1.74 1.76 1.78 1.78 1.77 1.77 1.77 1.75 1.73 1.71 1.67 1.61 1.57 1.57 1.58 1.56 1.53 1.52 1.58 1.69 1.79 1.89 1.96 1.97 1.92 1.89 1.88 1.87 1.87 1.87 1.89 1.92 1.93 1.94 1.87 1.90 1.93 1.95 1.97 1.97 1.94 1.93 1.93 1.93 1.93 1.93 1.93 1.90 1.89 1.89 1.88 1.89 1.90 1.91 1.85 1.80 1.78 1.76 1.73 1.66 1.59 1.53 1.54 1.54 1.54 1.55 1.59 1.66 1.73 1.77 1.80 1.76 1.70 1.63 1.58 1.56
1.11 1.17 1.23 1.30 1.36 1.45 1.53 1.61 1.66 1.69 1.74 1.75 1.73 1.75 1.75 1.75 1.71 1.74 1.73 1.68 1.64 1.59 1.61 1.63 1.60 1.59 1.59 1.58 1.65 1.74 1.85 1.84 1.82 1.83 1.82 1.85 1.88 1.89 1.90 1.90 1.91 1.91 1.85 1.88 1.92 1.93 1.94 1.93 1.92 1.91 1.92 1.94 1.95 1.96 1.93 1.91 1.89 1.88 1.86 1.84 1.84 1.85 1.82 1.80 1.76 1.78 1.77 1.72 1.66 1.62 1.60 1.60 1.61 1.62 1.70 1.75 1.79 1.82 1.81 1.83 1.85 1.83 1.78 1.71 1.67
1.06 1.10 1.21 1.29 1.36 1.43 1.46 1.54 1.63 1.68 1.71 1.74 1.75 1.77 1.74 1.72 1.68 1.71 1.70 1.69 1.69 1.67 1.67 1.69 1.68 1.67 1.66 1.69 1.70 1.79 1.77 1.70 1.70 1.73 1.78 1.80 1.81 1.83 1.84 1.84 1.85 1.87 1.88 1.91 1.92 1.90 1.88 1.88 1.90 1.93 1.95 1.94 1.94 1.89 1.83 1.80 1.81 1.81 1.80 1.78 1.76 1.74 1.76 1.76 1.75 1.72 1.68 1.69 1.69 1.66 1.67 1.72 1.73 1.75 1.78 1.80 1.77 1.75 1.75 1.76 1.80 1.79 1.79 1.71 1.64
1.10 1.11 1.15 1.26 1.37 1.42 1.44 1.49 1.58 1.67 1.70 1.73 1.75 1.78 1.79 1.76 1.73 1.70 1.70 1.69 1.70 1.71 1.71 1.71 1.71 1.71 1.70 1.72 1.78 1.70 1.66 1.64 1.64 1.65 1.68 1.67 1.68 1.70 1.73 1.75 1.79 1.81 1.79 1.78 1.78 1.80 1.80 1.80 1.76 1.74 1.71 1.69 1.68 1.69 1.67 1.66 1.65 1.65 1.67 1.67 1.66 1.66 1.66 1.67 1.66 1.65 1.64 1.65 1.65 1.68 1.72 1.79 1.88 1.91 1.90 1.88 1.83 1.83 1.83 1.79 1.82 1.80 1.80 1.80 1.69
1.14 1.14 1.19 1.26 1.35 1.43 1.46 1.54 1.58 1.63 1.71 1.72 1.69 1.72 1.77 1.78 1.74 1.71 1.70 1.71 1.68 1.69 1.73 1.73 1.72 1.72 1.71 1.76 1.68 1.64 1.60 1.61 1.60 1.60 1.63 1.67 1.69 1.72 1.74 1.73 1.71 1.67 1.61 1.56 1.49 1.42 1.35 1.31 1.28 1.26 1.25 1.23 1.24 1.27 1.30 1.35 1.38 1.40 1.42 1.45 1.47 1.49 1.53 1.58 1.63 1.66 1.65 1.66 1.66 1.70 1.76 1.80 1.80 1.83 1.87 1.84 1.81 1.86 1.94 1.93 1.91 1.76 1.79 1.77 1.67
1.22 1.22 1.26 1.28 1.32 1.42 1.48 1.56 1.58 1.58 1.62 1.63 1.65 1.69 1.73 1.75 1.68 1.69 1.78 1.84 1.85 1.80 1.77 1.75 1.76 1.79 1.77 1.72 1.64 1.58 1.57 1.57 1.63 1.67 1.69 1.69 1.68 1.65 1.62 1.59 1.55 1.47 1.38 1.29 1.26 1.24 1.20 1.14 1.10 1.05 0.98 0.91 0.88 0.88 0.89 0.89 0.90 0.93 0.96 0.99 1.05 1.09 1.13 1.17 1.20 1.27 1.39 1.52 1.59 1.62 1.64 1.71 1.75 1.80 1.84 1.82 1.80 1.86 1.94 1.91 1.88 1.83 1.86 1.79 1.65
1.26 1.27 1.30 1.32 1.35 1.40 1.47 1.51 1.52 1.54 1.53 1.55 1.58 1.63 1.74 1.77 1.76 1.73 1.73 1.85 1.93 1.95 1.90 1.79 1.77 1.76 1.70 1.70 1.70 1.66 1.63 1.67 1.69 1.68 1.65 1.66 1.64 1.59 1.52 1.42 1.33 1.27 1.25 1.23 1.17 1.07 0.97 0.89 0.86 0.85 0.86 0.88 0.88 0.89 0.90 0.92 0.92 0.93 0.96 1.00 1.06 1.09 1.11 1.13 1.13 1.13 1.17 1.20 1.26 1.34 1.46 1.57 1.63 1.72 1.74 1.76 1.81 1.85 1.87 1.86 1.88 1.90 1.80 1.75 1.61
1.27 1.28 1.32 1.34 1.37 1.41 1.44 1.42 1.47 1.48 1.50 1.52 1.56 1.56 1.59 1.69 1.75 1.76 1.78 1.82 1.84 1.83 1.83 1.80 1.79 1.81 1.80 1.72 1.72 1.74 1.73 1.71 1.68 1.66 1.60 1.52 1.44 1.37 1.31 1.27 1.24 1.19 1.13 1.03 0.93 0.87 0.85 0.84 0.85 0.89 0.91 0.92 0.92 0.93 0.96 0.96 0.96 0.96 0.96 1.00 1.02 1.05 1.09 1.13 1.17 1.24 1.28 1.29 1.32 1.35 1.40 1.43 1.46 1.51 1.54 1.63 1.67 1.70 1.74 1.79 1.83 1.80 1.75 1.74 1.70
1.25 1.28 1.32 1.36 1.39 1.43 1.42 1.43 1.45 1.46 1.49 1.54 1.57 1.54 1.54 1.51 1.59 1.72 1.76 1.79 1.83 1.83 1.82 1.83 1.84 1.84 1.82 1.79 1.75 1.71 1.67 1.60 1.52 1.44 1.39 1.35 1.30 1.26 1.21 1.13 1.04 0.99 0.98 0.97 0.89 0.88 0.89 0.89 0.89 0.91 0.93 0.91 0.93 0.96 0.98 0.98 0.99 1.00 1.00 0.99 0.99 1.04 1.08 1.09 1.20 1.28 1.30 1.32 1.33 1.35 1.40 1.46 1.51 1.56 1.58 1.59 1.64 1.71 1.74 1.74 1.77 1.78 1.76 1.77 1.75
1.32 1.33 1.36 1.39 1.42 1.46 1.47 1.47 1.51 1.53 1.53 1.52 1.54 1.56 1.54 1.52 1.49 1.52 1.66 1.73 1.75 1.74 1.75 1.75 1.75 1.74 1.73 1.68 1.60 1.49 1.42 1.38 1.35 1.32 1.26 1.17 1.09 1.03 1.00 1.01 1.00 0.99 0.97 0.94 0.90 0.90 0.93 0.94 0.93 0.95 0.96 0.96 0.99 1.00 1.01 1.04 1.04 1.05 1.06 1.05 1.05 1.08 1.13 1.17 1.22 1.22 1.26 1.30 1.32 1.34 1.37 1.41 1.45 1.48 1.58 1.69 1.70 1.70 1.77 1.80 1.79 1.81 1.69 1.66 1.66
1.42 1.43 1.45 1.47 1.46 1.49 1.52 1.54 1.54 1.54 1.56 1.59 1.60 1.61 1.62 1.63 1.60 1.59 1.56 1.56 1.62 1.66 1.67 1.65 1.60 1.55 1.50 1.44 1.37 1.33 1.30 1.23 1.13 1.06 1.02 1.00 0.99 1.00 0.99 0.98 1.00 1.02 1.01 0.96 0.95 0.94 0.97 0.97 0.98 0.99 1.01 1.04 1.05 1.06 1.07 1.08 1.09 1.09 1.10 1.11 1.12 1.14 1.16 1.23 1.24 1.24 1.26 1.28 1.30 1.34 1.39 1.43 1.50 1.56 1.64 1.69 1.73 1.75 1.74 1.77 1.78 1.74 1.66 1.61 1.57
1.54 1.56 1.56 1.55 1.53 1.53 1.56 1.56 1.56 1.57 1.59 1.59 1.59 1.59 1.59 1.61 1.62 1.59 1.54 1.49 1.45 1.41 1.39 1.40 1.41 1.37 1.32 1.31 1.26 1.17 1.08 1.04 1.01 0.99 0.98 0.99 0.99 0.99 1.02 0.99 0.97 1.00 1.01 1.02 1.02 1.01 1.01 1.01 1.01 1.03 1.05 1.05 1.07 1.10 1.09 1.10 1.10 1.11 1.12 1.12 1.13 1.15 1.17 1.20 1.21 1.23 1.25 1.28 1.31 1.33 1.41 1.51 1.63 1.74 1.81 1.82 1.82 1.82 1.83 1.85 1.88 1.77 1.66 1.63 1.52
1.59 1.59 1.58 1.58 1.55 1.55 1.56 1.57 1.57 1.55 1.53 1.52 1.53 1.55 1.60 1.60 1.56 1.49 1.42 1.37 1.33 1.30 1.27 1.27 1.25 1.23 1.17 1.10 1.07 1.04 1.02 1.01 1.00 0.99 0.97 0.98 1.00 1.01 0.92 0.92 0.95 0.97 0.99 1.02 1.03 1.05 1.06 1.06 1.06 1.08 1.10 1.11 1.13 1.12 1.13 1.12 1.12 1.14 1.16 1.16 1.14 1.16 1.20 1.22 1.26 1.27 1.29 1.31 1.37 1.53 1.57 1.57 1.64 1.69 1.80 1.82 1.82 1.80 1.83 1.85 1.87 1.85 1.79 1.67 1.57
1.56 1.55 1.56 1.56 1.58 1.57 1.56 1.57 1.56 1.56 1.57 1.57 1.58 1.58 1.57 1.55 1.51 1.40 1.31 1.27 1.24 1.22 1.19 1.13 1.05 1.02 1.04 1.05 1.07 1.06 1.04 1.01 0.99 1.01 1.03 1.04 1.06 1.05 1.00 0.98 0.97 0.99 1.00 1.02 1.05 1.05 1.05 1.07 1.11 1.13 1.14 1.13 1.13 1.14 1.15 1.13 1.14 1.15 1.18 1.19 1.20 1.19 1.17 1.18 1.20 1.22 1.24 1.25 1.29 1.50 1.61 1.63 1.67 1.73 1.74 1.70 1.75 1.79 1.82 1.85 1.87 1.85 1.75 1.64 1.55
1.52 1.52 1.52 1.53 1.52 1.52 1.51 1.50 1.51 1.51 1.51 1.51 1.51 1.49 1.46 1.40 1.29 1.21 1.18 1.14 1.10 1.05 1.01 0.99 0.97 0.92 0.87 0.91 1.02 1.00 1.00 1.04 1.08 1.09 1.09 1.08 1.07 1.05 1.04 1.03 1.03 1.01 1.04 1.07 1.09 1.09 1.08 1.10 1.13 1.15 1.16 1.17 1.14 1.15 1.14 1.13 1.15 1.16 1.17 1.18 1.20 1.22 1.23 1.21 1.19 1.18 1.17 1.17 1.23 1.43 1.63 1.69 1.77 1.82 1.77 1.75 1.71 1.72 1.76 1.76 1.79 1.78 1.68 1.61 1.55
1.41 1.43 1.45 1.46 1.47 1.46 1.44 1.43 1.44 1.43 1.42 1.41 1.36 1.29 1.20 1.12 1.09 1.08 1.07 1.05 1.03 1.00 0.98 0.95 0.91 0.89 0.91 0.99 1.02 1.09 1.09 1.05 1.03 1.02 1.04 1.07 1.10 1.11 1.11 1.11 1.09 1.07 1.09 1.10 1.11 1.12 1.11 1.11 1.15 1.17 1.18 1.16 1.15 1.15 1.13 1.11 1.12 1.13 1.15 1.15 1.16 1.17 1.17 1.19 1.19 1.20 1.19 1.21 1.35 1.53 1.58 1.65 1.70 1.71 1.73 1.72 1.68 1.68 1.71 1.75 1.72 1.65 1.61 1.55 1.52
1.25 1.28 1.33 1.36 1.36 1.36 1.36 1.34 1.32 1.27 1.21 1.14 1.11 1.10 1.07 1.05 1.03 1.02 1.03 1.00 0.97 0.96 0.96 0.94 0.93 0.96 1.02 1.06 1.06 1.10 1.05 1.04 1.05 1.08 1.09 1.09 1.10 1.11 1.14 1.13 1.13 1.11 1.11 1.12 1.13 1.13 1.13 1.15 1.17 1.16 1.16 1.16 1.17 1.16 1.16 1.13 1.11 1.12 1.14 1.16 1.17 1.15 1.15 1.15 1.16 1.18 1.24 1.29 1.30 1.43 1.60 1.64 1.64 1.63 1.66 1.69 1.68 1.65 1.65 1.64 1.60 1.57 1.53 1.52 1.45
1.20 1.21 1.20 1.19 1.17 1.16 1.16 1.15 1.13 1.12 1.12 1.11 1.10 1.08 1.04 1.03 1.01 1.00 0.99 0.97 0.99 1.00 1.00 1.00 1.02 1.07 1.11 1.12 1.14 1.13 1.09 1.08 1.11 1.12 1.12 1.12 1.14 1.14 1.14 1.17 1.18 1.17 1.16 1.15 1.15 1.15 1.15 1.16 1.17 1.18 1.19 1.19 1.20 1.19 1.18 1.18 1.16 1.14 1.14 1.17 1.19 1.16 1.16 1.16 1.17 1.19 1.22 1.26 1.32 1.35 1.42 1.48 1.49 1.50 1.50 1.51 1.52 1.52 1.53 1.53 1.50 1.44 1.39 1.36 1.33
1.16 1.15 1.15 1.15 1.16 1.13 1.12 1.11 1.11 1.11 1.12 1.11 1.09 1.06 1.03 1.02 1.01 1.01 1.01 1.02 1.05 1.06 1.08 1.09 1.12 1.16 1.18 1.19 1.20 1.19 1.16 1.16 1.15 1.13 1.13 1.15 1.16 1.17 1.18 1.20 1.22 1.21 1.21 1.20 1.20 1.18 1.17 1.17 1.18 1.19 1.18 1.20 1.21 1.22 1.22 1.20 1.20 1.19 1.18 1.18 1.19 1.18 1.16 1.15 1.17 1.20 1.23 1.25 1.29 1.34 1.42 1.48 1.47 1.46 1.48 1.49 1.48 1.42 1.40 1.39 1.38 1.36 1.34 1.32 1.32
1.20 1.17 1.16 1.16 1.16 1.14 1.11 1.11 1.13 1.12 1.11 1.10 1.11 1.13 1.13 1.12 1.11 1.11 1.11 1.12 1.13 1.15 1.16 1.17 1.19 1.23 1.24 1.26 1.26 1.25 1.22 1.19 1.15 1.13 1.13 1.14 1.16 1.19 1.20 1.21 1.22 1.24 1.25 1.27 1.29 1.27 1.23 1.19 1.17 1.17 1.16 1.18 1.20 1.20 1.21 1.22 1.25 1.24 1.25 1.24 1.25 1.26 1.25 1.24 1.25 1.27 1.28 1.26 1.28 1.30 1.27 1.28 1.36 1.37 1.36 1.37 1.38 1.38 1.37 1.35 1.35 1.35 1.34 1.34 1.32
1.21 1.20 1.19 1.18 1.16 1.14 1.13 1.12 1.12 1.13 1.13 1.14 1.14 1.14 1.14 1.14 1.14 1.14 1.13 1.13 1.15 1.16 1.15 1.17 1.19 1.21 1.23 1.27 1.29 1.26 1.21 1.19 1.17 1.17 1.18 1.20 1.22 1.24 1.26 1.26 1.25 1.24 1.26 1.27 1.29 1.30 1.27 1.23 1.20 1.19 1.19 1.19 1.20 1.21 1.22 1.24 1.26 1.23 1.22 1.20 1.20 1.24 1.28 1.28 1.25 1.27 1.30 1.30 1.30 1.30 1.31 1.29 1.26 1.27 1.28 1.28 1.28 1.26 1.26 1.28 1.29 1.30 1.30 1.28 1.26
1.22 1.20 1.18 1.16 1.15 1.13 1.13 1.14 1.13 1.13 1.15 1.16 1.15 1.16 1.17 1.16 1.15 1.15 1.16 1.15 1.16 1.16 1.16 1.16 1.18 1.18 1.19 1.20 1.21 1.20 1.21 1.22 1.23 1.24 1.27 1.29 1.30 1.31 1.32 1.31 1.27 1.24 1.25 1.26 1.29 1.29 1.27 1.25 1.22 1.19 1.17 1.18 1.20 1.20 1.21 1.21 1.22 1.21 1.19 1.16 1.14 1.14 1.17 1.20 1.23 1.25 1.23 1.21 1.20 1.18 1.18 1.18 1.17 1.18 1.19 1.21 1.22 1.22 1.22 1.23 1.24 1.23 1.20 1.19 1.18
1.24 1.23 1.21 1.19 1.18 1.18 1.17 1.18 1.19 1.18 1.17 1.17 1.16 1.15 1.17 1.18 1.19 1.18 1.17 1.17 1.16 1.15 1.15 1.16 1.16 1.16 1.16 1.16 1.18 1.19 1.20 1.22 1.25 1.28 1.31 1.32 1.32 1.32 1.32 1.31 1.30 1.29 1.28 1.29 1.30 1.29 1.26 1.22 1.19 1.15 1.14 1.15 1.18 1.19 1.20 1.21 1.23 1.24 1.24 1.24 1.22 1.21 1.22 1.23 1.25 1.24 1.23 1.21 1.19 1.17 1.16 1.15 1.14 1.15 1.17 1.18 1.19 1.20 1.21 1.21 1.20 1.18 1.16 1.16 1.16
1.23 1.22 1.21 1.20 1.17 1.16 1.16 1.18 1.19 1.18 1.17 1.17 1.18 1.18 1.18 1.18 1.17 1.16 1.15 1.14 1.14 1.13 1.12 1.13 1.14 1.14 1.14 1.15 1.16 1.19 1.22 1.24 1.25 1.27 1.29 1.31 1.32 1.32 1.31 1.31 1.31 1.32 1.31 1.30 1.29 1.26 1.22 1.19 1.16 1.13 1.13 1.13 1.14 1.15 1.15 1.14 1.16 1.18 1.21 1.22 1.22 1.22 1.23 1.25 1.25 1.27 1.28 1.27 1.26 1.25 1.21 1.18 1.16 1.15 1.15 1.17 1.16 1.15 1.13 1.15 1.16 1.14 1.13 1.12 1.10
1.22 1.20 1.19 1.19 1.18 1.17 1.18 1.18 1.16 1.16 1.15 1.15 1.16 1.16 1.15 1.13 1.11 1.10 1.09 1.09 1.09 1.09 1.09 1.10 1.11 1.13 1.14 1.17 1.20 1.22 1.24 1.25 1.26 1.27 1.28 1.29 1.30 1.31 1.31 1.30 1.29 1.29 1.29 1.27 1.23 1.20 1.19 1.17 1.16 1.15 1.13 1.12 1.11 1.09 1.09 1.09 1.09 1.09 1.08 1.07 1.06 1.06 1.09 1.14 1.18 1.24 1.28 1.28 1.27 1.26 1.24 1.19 1.15 1.14 1.14 1.13 1.08 1.06 1.04 1.04 1.04 1.03 1.02 1.01 1.00
1.23 1.22 1.20 1.19 1.17 1.16 1.14 1.13 1.12 1.10 1.09 1.09 1.08 1.07 1.06 1.05 1.04 1.03 1.03 1.04 1.05 1.06 1.07 1.08 1.10 1.13 1.15 1.17 1.19 1.22 1.24 1.24 1.24 1.25 1.26 1.27 1.27 1.28 1.28 1.27 1.25 1.25 1.25 1.23 1.20 1.19 1.17 1.16 1.15 1.14 1.12 1.11 1.09 1.07 1.06 1.05 1.04 1.04 1.03 1.03 1.03 1.02 1.01 1.02 1.04 1.06 1.10 1.13 1.12 1.13 1.16 1.16 1.11 1.06 1.08 1.08 1.03 1.01 0.99 0.98 0.97 0.97 0.96 0.95 0.94
1.18 1.18 1.16 1.13 1.13 1.11 1.11 1.10 1.09 1.08 1.07 1.06 1.05 1.03 1.03 1.03 1.02 1.02 1.02 1.02 1.03 1.03 1.04 1.06 1.08 1.11 1.13 1.16 1.19 1.21 1.22 1.23 1.23 1.23 1.23 1.24 1.24 1.25 1.24 1.23 1.23 1.23 1.23 1.22 1.22 1.20 1.17 1.15 1.13 1.12 1.10 1.09 1.08 1.07 1.05 1.04 1.03 1.00 1.00 1.00 1.01 1.02 1.01 1.00 0.99 0.99 0.99 1.01 1.03 1.04 1.03 1.00 1.00 1.01 0.98 0.98 0.99 0.98 0.96 0.94 0.94 0.92 0.91 0.90 0.88
1.10 1.09 1.07 1.07 1.06 1.06 1.06 1.04 1.03 1.02 1.02 1.01 1.00 0.99 0.98 0.98 0.98 0.99 0.99 0.99 1.00 1.01 1.04 1.07 1.09 1.12 1.14 1.15 1.17 1.17 1.17 1.18 1.19 1.18 1.19 1.20 1.20 1.21 1.22 1.21 1.21 1.21 1.20 1.20 1.19 1.19 1.19 1.17 1.15 1.12 1.10 1.08 1.08 1.07 1.06 1.05 1.03 0.99 0.97 0.97 0.97 0.97 0.97 0.97 0.96 0.97 0.98 0.98 0.99 0.99 0.99 0.98 0.94 0.91 0.91 0.92 0.91 0.90 0.88 0.88 0.88 0.87 0.86 0.85 0.83
Wind_Speed
27 26 26 26 26 26 25 25 24 24 23 23 22 21 20 20 19 19 19 18 18 17 17 16 16 16 15 15 15 15 14 14 14 14 14 14 13 13 13 13 14 14 13 13 13 13 12 12 11 11 10 10 10 10 9 9 9 8 8 8 8 8 8 8 8 8 8 8 7 7 7 6 7 7 8 9 10 10 10 10 11 11 12 13 13
27 27 27 26 27 26 26 25 25 24 24 23 23 22 21 21 20 19 19 19 18 18 17 17 17 16 16 16 15 15 15 15 15 15 14 15 14 14 14 14 14 15 15 14 14 14 14 13 13 12 12 12 12 12 11 11 10 10 10 10 10 10 9 9 9 10 10 10 9 8 8 7 8 8 9 10 10 10 11 11 11 12 12 13 14
27 27 26 26 27 26 26 26 25 25 24 24 23 23 22 21 21 20 20 19 19 18 18 17 17 17 16 16 15 16 16 16 15 15 15 15 15 15 15 15 15 15 15 15 15 15 15 15 14 14 13 13 13 13 13 13 12 12 12 12 12 12 11 11 11 11 11 11 11 10 10 9 10 10 10 11 11 11 12 12 13 13 13 14 14
26 27 27 26 26 26 26 26 25 25 25 24 24 23 22 22 21 21 20 20 19 19 18 18 17 17 17 17 16 16 16 16 16 16 16 16 16 16 16 15 15 15 16 16 16 16 16 16 16 15 15 15 15 15 14 14 14 14 14 14 13 13 13 13 13 13 12 13 13 13 12 12 12 12 12 12 12 13 13 13 14 14 15 15 15
26 26 27 27 26 26 26 25 25 25 25 24 24 23 22 22 21 21 21 20 20 19 19 18 18 18 17 17 17 17 17 17 16 16 16 16 16 16 16 16 16 16 16 16 17 17 17 17 17 17 17 17 17 16 16 16 16 16 16 15 15 15 15 15 15 14 14 14 14 14 14 14 14 14 14 14 14 14 14 15 15 15 16 16 16
25 25 26 26 27 27 26 26 25 25 25 24 23 23 22 22 22 21 21 21 20 20 19 19 19 18 18 18 18 18 17 17 17 17 17 16 17 17 17 17 17 16 16 17 17 17 18 18 18 18 18 18 18 18 18 18 18 17 17 17 17 17 16 16 16 16 16 16 16 16 16 16 16 17 17 16 16 16 16 16 17 17 17 17 17
25 25 25 26 26 27 27 26 26 25 25 24 23 23 22 22 22 21 21 21 20 20 20 19 19 19 19 18 18 18 18 18 18 17 17 17 17 17 17 18 18 17 17 17 18 18 18 19 19 19 19 19 20 19 19 19 19 19 19 19 18 18 18 18 18 17 17 17 17 17 17 17 18 18 18 18 18 18 18 18 19 19 18 18 19
25 25 25 25 26 27 27 26 26 26 25 25 24 23 23 23 22 21 21 21 21 20 20 20 20 19 19 19 18 18 18 18 18 18 18 18 18 18 18 18 18 18 17 18 18 19 19 19 20 20 20 20 21 21 21 21 21 21 21 20 20 20 20 19 19 19 19 19 19 19 19 19 19 19 19 19 20 20 20 20 21 21 20 20 21
25 25 25 25 26 26 26 26 26 26 25 25 25 24 24 23 23 22 22 21 21 21 21 20 20 20 19 19 18 18 18 18 18 18 18 18 18 18 18 18 18 18 18 18 18 19 19 20 20 21 21 22 22 22 22 22 22 22 22 22 22 22 21 21 21 21 21 21 21 21 21 21 21 21 21 21 22 22 22 22 22 22 22 22 22
24 25 25 25 26 26 26 26 26 26 26 25 25 25 24 24 23 23 22 22 21 21 21 21 20 20 20 19 19 19 18 18 19 19 19 18 18 18 18 18 17 17 18 18 18 19 20 20 21 22 22 23 23 23 24 24 24 24 24 24 24 24 23 23 23 23 23 23 23 23 23 23 23 23 24 24 24 24 24 24 24 23 23 23 23
24 25 25 25 26 26 26 26 26 26 26 26 26 25 25 24 23 23 22 22 22 21 21 21 21 20 20 20 19 19 19 19 19 20 19 19 18 18 17 17 17 17 18 18 19 19 20 20 21 22 23 23 24 24 25 25 26 26 26 26 26 26 25 25 25 25 26 26 26 26 26 26 26 26 26 26 26 26 26 26 25 25 24 24 24
23 24 25 25 26 26 26 26 26 26 26 26 26 25 25 24 24 23 23 22 22 21 21 21 20 20 20 20 20 19 19 20 20 20 20 20 19 18 17 17 17 18 18 18 18 19 19 20 20 21 22 23 23 24 25 26 26 27 27 27 28 28 28 28 27 27 28 28 28 28 28 29 28 28 28 27 27 27 27 27 27 27 26 25 25
22 23 24 25 26 26 26 26 26 26 26 26 26 25 25 24 24 23 23 22 21 21 21 20 20 19 19 19 19 19 19 19 19 19 19 19 19 18 17 17 17 17 17 18 18 18 19 19 20 21 21 22 23 23 24 26 26 27 28 28 29 29 30 30 30 30 30 30 30 30 30 30 30 30 29 29 29 29 29 28 28 28 28 27 27
21 22 23 24 25 26 26 26 26 25 25 25 25 25 25 25 24 23 22 22 21 21 21 20 20 20 19 19 19 19 19 18 18 19 18 18 18 18 17 17 17 18 18 19 19 20 20 20 21 22 22 23 23 24 25 26 27 28 29 29 30 30 31 32 32 32 32 32 32 32 32 31 32 31 30 30 30 31 30 30 30 30 29 29 28
21 22 23 24 24 25 26 26 26 26 25 25 25 25 25 25 24 23 23 22 22 21 21 21 20 20 20 19 19 19 19 19 19 18 19 19 19 18 18 19 19 19 20 20 21 22 22 23 23 24 24 25 25 26 27 28 28 29 30 31 31 32 32 33 33 34 34 34 35 35 34 34 34 33 32 32 32 32 32 32 32 32 31 30 29
22 22 23 23 23 24 25 25 26 26 26 26 26 26 25 25 24 24 23 23 22 22 22 21 21 21 20 20 19 19 19 19 19 19 19 19 19 19 20 20 20 21 22 22 23 24 24 25 25 26 26 27 27 28 29 29 30 30 31 32 33 33 34 34 35 36 36 36 37 37 37 36 36 35 35 34 34 33 33 33 33 32 32 31 30
22 23 24 24 23 23 24 24 25 26 26 26 26 26 26 25 25 25 24 24 23 23 22 22 22 21 21 21 21 20 20 20 20 20 20 20 20 20 21 22 22 23 23 24 25 25 26 27 28 28 29 29 30 30 30 31 31 32 33 33 34 35 35 35 36 37 38 38 38 39 39 38 38 37 37 36 35 34 34 34 33 33 32 32 31
23 24 24 24 23 23 23 23 24 25 26 27 27 27 26 26 25 25 25 24 24 23 23 23 22 22 22 22 22 21 21 20 20 21 21 21 22 22 22 23 24 25 25 25 26 27 27 29 29 30 30 31 31 32 32 32 33 34 34 35 35 36 37 37 37 38 39 40 40 40 40 40 39 39 38 38 37 36 36 36 34 33 33 33 33
23 24 24 24 24 24 24 23 23 24 25 27 27 27 27 26 26 25 25 25 24 24 23 23 23 22 22 22 22 22 21 21 21 21 22 22 23 23 23 24 25 26 26 27 27 28 29 30 30 31 32 33 33 33 33 34 35 36 36 36 37 37 38 38 38 39 40 40 41 42 42 41 41 41 40 40 39 39 38 38 36 35 35 34 33
23 23 24 24 24 24 24 24 23 23 24 25 26 26 26 26 26 25 25 25 24 24 23 23 22 22 22 22 22 22 22 22 22 22 22 23 24 24 25 25 26 26 27 28 28 29 30 31 31 32 33 34 34 35 35 36 37 38 38 38 39 39 39 39 40 41 41 42 42 43 44 44 43 43 42 42 41 41 40 40 39 38 36 35 35
24 24 24 24 24 24 24 24 24 23 23 24 25 25 25 25 25 25 25 24 24 24 23 23 22 22 21 22 22 22 22 23 23 23 24 24 25 26 26 27 27 27 28 28 29 30 31 32 32 33 34 35 36 37 37 38 39 39 40 40 41 42 42 42 43 43 44 44 44 44 45 45 45 45 44 44 43 43 42 42 41 40 39 37 36
24 24 24 24 24 23 23 23 23 23 22 22 23 24 24 24 24 24 24 24 24 24 24 23 22 22 21 22 22 23 23 24 24 24 24 25 26 26 27 27 28 29 29 29 30 30 31 32 33 34 35 36 37 38 39 40 40 41 42 43 44 45 45 45 45 45 46 46 46 46 46 46 46 47 46 46 45 45 44 43 43 42 41 40 39
24 24 24 24 24 23 23 23 23 22 22 22 22 23 23 23 23 23 23 24 24 24 24 23 23 23 22 22 22 22 22 23 24 24 24 25 25 26 27 27 28 29 30 30 30 31 32 33 34 35 36 37 38 39 40 40 41 42 43 45 46 47 47 47 48 48 48 48 48 48 48 48 48 48 48 48 47 46 46 45 44 43 42 41 41
24 24 24 24 24 23 23 23 23 22 22 22 22 23 23 23 23 23 23 23 23 23 23 23 23 23 23 22 21 21 21 22 22 22 23 24 25 26 27 28 29 30 30 31 32 32 33 34 35 36 37 38 39 40 41 42 43 44 45 46 47 47 48 49 49 50 50 50 50 50 51 50 50 50 50 50 49 48 48 47 46 45 44 42 41
24 24 24 24 24 24 23 23 23 23 22 22 23 23 23 23 23 23 23 23 23 22 22 22 22 22 22 22 22 22 22 21 21 21 21 22 23 25 26 28 29 31 32 33 34 35 36 36 37 38 39 40 41 41 42 43 45 46 47 47 48 48 49 50 51 51 52 52 53 53 53 53 53 53 52 51 51 50 49 48 47 46 45 43 42
23 23 24 25 25 24 24 23 24 24 23 23 23 23 23 23 23 23 23 23 22 22 22 22 22 22 22 22 23 23 22 22 22 22 22 23 24 25 26 27 29 30 32 33 35 36 37 38 38 39 40 41 42 43 44 45 46 47 48 49 49 50 51 52 53 53 54 55 55 55 55 55 55 54 53 52 52 51 50 49 48 46 44 43 42
23 22 23 24 25 25 24 23 23 23 23 23 23 23 23 23 23 23 23 23 23 22 22 22 22 22 22 22 22 22 22 23 23 24 24 25 25 26 27 28 29 30 31 32 33 34 35 36 38 39 41 42 43 44 46 47 48 49 49 50 51 52 53 54 55 56 56 57 57 57 57 57 56 55 54 53 52 52 52 51 48 46 45 44 44
21 21 22 24 24 25 24 24 23 23 23 22 22 23 23 24 24 23 23 23 23 23 23 22 22 22 22 22 22 22 23 24 24 25 25 26 26 27 28 28 29 30 31 32 33 34 35 37 39 40 42 43 44 45 46 47 48 49 50 51 52 53 54 55 56 57 57 57 58 58 58 58 58 57 55 54 54 53 52 51 49 47 46 44 43
20 21 22 22 23 24 24 24 23 23 22 21 21 21 22 23 23 23 23 23 23 23 23 22 22 22 21 21 22 22 23 24 24 25 25 26 27 27 28 29 29 30 31 32 34 35 36 38 40 41 42 44 45 46 47 48 49 50 50 51 51 52 53 54 55 56 57 58 59 60 59 59 59 58 57 56 55 53 52 51 50 48 45 43 42
20 21 21 21 22 23 24 24 23 22 22 21 21 21 20 20 21 21 22 22 22 22 22 22 22 22 22 22 22 22 23 23 24 25 25 26 26 27 28 29 30 31 32 33 34 36 37 39 40 41 42 43 44 45 45 46 47 48 49 50 50 51 52 53 54 55 56 57 59 60 60 60 60 59 58 56 54 52 51 50 50 48 46 44 43
20 20 20 21 21 22 23 23 23 22 22 22 22 21 20 19 19 19 20 20 20 20 20 20 21 21 22 22 22 22 22 23 24 24 25 25 26 27 28 29 30 31 32 33 34 36 37 38 39 40 41 42 43 43 44 44 45 46 47 48 49 50 51 52 52 53 54 56 57 58 59 60 60 59 58 56 54 53 51 50 49 48 47 45 43
20 20 20 20 20 21 21 22 22 22 22 22 22 22 21 20 19 18 18 18 18 19 19 20 20 20 21 21 22 22 22 23 23 24 25 25 26 27 28 29 30 31 32 33 35 36 37 39 40 41 41 42 42 43 43 44 45 46 47 48 49 49 49 50 51 51 52 53 54 56 57 58 58 58 57 57 55 54 51 49 48 48 47 44 42
19 19 19 19 19 20 20 20 21 22 22 22 22 23 22 22 21 19 18 18 18 18 19 19 19 19 20 20 20 21 22 23 23 24 25 25 26 27 28 28 30 31 33 35 36 37 38 39 40 40 41 41 42 43 43 44 44 45 46 47 48 48 48 49 50 50 51 52 53 54 55 56 57 56 55 55 55 53 51 49 48 47 44 42 41
19 19 19 19 19 19 19 19 20 21 21 21 22 22 22 22 21 21 20 20 19 19 19 19 19 19 19 20 20 21 22 23 24 24 25 26 27 27 28 29 31 33 34 36 37 38 38 38 39 39 40 41 41 42 42 42 43 44 45 46 47 48 48 49 49 50 50 51 53 54 55 55 54 52 51 51 52 51 49 47 46 45 43 40 40
18 18 18 18 18 18 18 18 19 19 19 20 20 20 20 20 20 20 20 20 19 19 19 19 19 19 20 21 21 22 23 23 24 25 26 27 28 29 30 31 32 34 35 36 37 37 37 37 37 38 39 40 40 40 40 41 42 42 43 44 45 46 47 47 48 49 50 51 53 54 54 52 49 47 47 47 47 47 46 44 43 42 40 38 38
18 18 18 18 18 18 17 17 18 18 18 18 19 19 19 19 19 19 19 19 19 19 19 19 20 20 21 22 22 22 23 24 25 25 26 28 29 30 31 32 33 34 35 36 36 35 35 36 36 37 38 38 38 38 38 39 39 39 40 40 41 42 42 43 44 45 47 49 51 50 47 44 42 40 39 39 41 43 44 44 42 40 37 35 35
18 18 18 18 18 18 17 17 17 17 17 18 18 18 18 18 18 19 19 19 19 20 20 20 21 21 21 22 23 23 24 25 25 26 27 28 29 30 31 32 33 34 35 35 34 34 34 35 35 36 35 35 35 35 35 35 36 36 37 37 36 36 37 37 39 40 43 46 48 45 40 37 35 34 32 31 33 37 40 41 41 40 36 33 32
19 19 18 18 18 18 18 18 17 17 17 18 18 18 18 18 19 19 20 20 20 20 20 21 21 21 22 23 24 24 25 26 26 27 28 29 30 31 31 32 33 34 34 33 33 33 33 33 33 33 33 32 32 32 33 33 33 33 33 33 32 32 33 35 37 39 42 45 42 35 29 26 25 25 24 23 25 30 33 33 35 36 36 32 29
20 19 19 19 18 18 18 18 18 18 18 18 18 18 19 19 19 20 20 20 20 20 21 21 22 22 23 24 24 25 26 26 27 27 28 29 30 31 31 32 32 33 33 32 31 31 31 31 31 31 30 30 31 31 31 31 31 31 30 30 29 29 31 34 36 38 40 42 38 27 16 12 11 9 11 13 17 23 27 29 30 31 31 29 28
20 20 19 19 18 18 18 18 18 18 18 18 18 18 19 19 19 20 20 20 21 21 21 22 22 23 24 24 25 26 26 27 27 28 29 30 30 31 31 32 32 32 31 31 30 30 30 29 29 29 29 29 29 29 29 28 28 28 28 27 27 28 30 32 33 33 34 36 36 31 22 16 12 8 5 10 15 18 21 24 26 27 27 26 26
21 20 20 19 19 19 18 18 18 18 19 19 19 19 19 19 20 20 20 21 21 21 21 22 23 24 24 25 25 26 26 27 27 28 29 30 30 31 31 31 31 31 30 29 29 29 28 28 28 27 27 27 27 27 27 26 26 26 26 25 25 26 28 29 29 28 28 28 28 27 23 19 16 14 11 11 14 16 17 19 21 23 23 23 22
21 21 21 21 20 20 19 19 19 19 19 20 20 20 19 19 19 20 20 21 21 21 22 22 23 24 25 25 26 26 26 27 27 28 29 29 29 30 30 30 30 30 29 28 28 27 26 26 26 26 25 25 25 25 25 24 24 24 24 24 24 25 26 26 26 25 25 24 23 21 18 14 12 12 10 9 10 11 12 13 14 15 16 17 17
21 21 21 21 21 20 20 20 20 19 19 19 19 19 19 19 19 20 20 20 21 21 22 23 23 24 25 26 26 26 27 27 27 27 28 28 28 29 29 29 29 28 27 26 26 26 25 25 25 24 24 23 23 23 23 22 22 22 22 23 23 23 23 23 24 23 22 21 20 19 16 12 9 8 6 3 3 4 6 7 9 10 12 12 13
22 22 21 21 21 20 20 20 19 19 19 19 19 19 19 19 20 20 21 21 22 22 23 23 24 24 25 25 25 26 27 27 27 27 27 28 28 28 28 28 27 27 26 25 25 25 24 24 24 23 23 22 22 22 22 21 21 21 21 21 21 20 20 21 21 21 20 19 18 17 15 13 10 8 6 4 2 2 3 4 6 7 9 9 10
22 22 21 21 20 20 20 20 20 20 20 20 20 20 20 21 21 22 22 23 23 24 24 24 25 25 25 25 25 26 26 27 27 27 27 27 28 28 27 26 26 25 25 25 24 24 24 23 23 23 22 22 22 22 21 21 20 20 20 19 19 18 18 19 19 18 18 17 16 15 14 13 11 9 7 6 4 2 2 3 4 5 7 8 10
22 22 21 21 20 20 20 20 21 21 21 22 22 22 22 22 23 23 23 24 24 25 25 25 26 26 26 26 26 26 26 26 26 26 27 27 27 27 26 25 25 24 24 24 24 23 23 23 22 22 21 21 21 21 21 20 20 19 19 18 18 18 18 17 17 17 16 15 15 14 13 12 10 8 7 6 5 4 4 4 5 6 7 8 10
22 22 21 21 21 21 21 21 22 22 22 23 23 23 24 24 24 24 25 25 25 25 26 26 26 26 26 27 27 27 26 26 26 27 27 27 27 27 26 25 25 24 24 24 23 23 23 22 21 21 21 21 20 20 20 19 18 18 18 18 17 17 17 17 17 16 15 14 13 13 12 12 11 9 8 8 7 7 6 6 6 7 8 9 10
21 21 21 21 21 21 22 22 22 23 23 23 24 24 24 25 25 25 25 25 26 26 26 26 26 26 27 27 26 26 26 26 26 27 27 27 27 26 26 25 25 24 24 23 22 22 22 21 21 20 20 20 20 19 19 18 18 17 17 16 16 16 16 16 16 16 15 14 14 13 12 12 12 12 11 9 8 7 7 7 7 8 9 9 10
21 21 22 22 22 22 22 22 22 22 23 23 23 23 24 24 24 24 25 25 25 26 26 26 27 27 27 26 26 26 26 26 26 26 27 27 26 26 25 25 24 24 23 22 22 21 21 21 20 20 20 19 19 19 18 18 18 17 17 17 17 17 17 16 16 16 15 15 15 14 13 13 13 13 12 11 10 9 9 9 10 10 11 11 12
21 22 22 22 22 22 22 22 22 22 22 22 22 23 23 23 24 24 24 25 25 26 26 27 27 27 26 26 26 26 27 27 27 27 27 26 26 25 25 24 24 23 23 22 22 21 21 20 20 20 20 19 19 19 19 19 18 18 18 18 18 18 18 18 17 17 17 16 16 15 14 14 13 13 13 13 13 12 12 12 13 13 14 14 14
21 21 21 21 21 22 22 21 21 21 21 22 22 22 23 23 23 24 25 25 26 26 27 27 27 27 27 27 27 27 27 27 27 27 26 26 25 25 24 24 23 23 23 23 22 22 21 21 20 20 20 20 20 20 20 19 19 19 19 20 20 20 20 20 20 19 19 18 18 17 16 16 15 15 15 15 15 15 15 15 15 15 15 15 15
Wind_Direction
205 206 207 208 209 210 211 212 212 213 214 216 217 218 219 219 220 222 223 226 227 229 230 232 234 235 236 237 238 240 241 243 245 244 244 246 249 251 251 248 246 247 248 248 248 250 253 256 258 261 262 263 265 268 271 274 278 281 285 287 290 295 298 297 296 299 302 304 310 313 310 307 306 306 310 312 312 311 312 314 315 315 316 317 318
206 207 208 209 210 211 212 213 214 214 215 217 218 220 221 221 222 223 225 227 229 230 231 233 235 236 237 239 240 241 242 242 244 245 244 244 246 250 252 250 248 248 248 248 248 249 252 254 257 260 263 265 266 268 269 272 275 278 282 285 286 287 289 291 291 293 294 294 299 305 303 300 300 301 304 308 309 309 310 312 311 312 313 315 316
207 208 209 210 212 213 214 215 215 216 217 218 219 221 222 223 224 225 226 228 230 231 232 233 235 236 238 240 241 242 242 243 244 244 244 244 245 247 250 251 251 249 248 248 248 249 250 252 256 258 261 263 266 268 269 270 273 276 279 282 284 285 285 286 286 287 289 289 289 292 294 295 296 297 300 303 305 306 307 308 308 309 311 312 314
207 208 210 212 213 213 215 216 217 217 218 219 220 221 222 223 225 226 227 229 231 232 234 234 236 237 238 239 240 242 243 243 244 245 245 246 246 247 248 251 253 251 249 248 248 249 249 251 254 256 258 260 263 267 269 270 272 274 276 279 281 283 284 284 283 284 285 286 285 285 287 290 292 294 296 299 301 302 304 306 306 308 309 310 311
208 209 211 212 213 214 215 216 217 218 219 220 221 221 222 224 225 226 228 229 231 233 234 235 236 237 238 240 241 242 243 244 245 245 246 247 247 248 248 250 252 253 252 249 248 249 249 251 253 254 256 258 261 264 267 268 270 272 274 277 279 281 282 282 282 282 282 283 284 284 285 286 288 289 291 293 295 298 301 303 304 306 308 308 309
208 210 212 213 214 214 215 216 217 217 218 219 220 221 222 224 225 227 228 229 231 233 234 235 237 238 239 241 242 243 244 244 245 246 246 246 246 247 248 250 252 254 253 251 249 249 250 251 253 254 255 257 260 263 265 266 268 270 272 274 276 277 279 280 281 281 281 282 284 284 284 284 285 286 287 288 290 293 296 299 301 303 305 306 306
209 211 212 213 214 214 215 216 217 218 219 220 220 221 223 224 226 227 228 230 231 232 233 234 237 239 240 242 243 244 245 245 246 246 246 246 247 248 249 250 253 255 255 252 250 250 250 252 253 254 255 257 260 262 264 265 267 268 270 272 274 274 275 277 278 279 280 282 283 284 283 284 284 285 286 287 288 290 292 293 296 298 300 302 303
209 211 212 214 215 215 216 217 218 219 220 221 221 222 224 225 227 229 230 230 231 232 233 235 237 239 241 242 244 245 246 246 247 247 247 247 248 248 250 251 253 255 255 254 252 251 251 252 254 255 256 257 259 261 263 265 266 268 269 271 272 272 273 275 276 277 278 280 282 283 284 284 285 285 285 285 285 286 287 289 292 294 296 298 300
209 210 212 214 215 216 217 219 219 220 221 222 223 224 225 226 228 230 231 232 233 233 234 236 238 240 241 242 244 245 247 247 247 247 248 248 248 249 250 252 253 254 254 254 254 254 253 254 255 256 257 258 259 260 262 263 265 267 268 269 270 271 272 273 274 275 276 277 279 281 282 283 284 284 283 282 282 284 285 287 289 292 293 295 297
210 211 212 214 215 217 218 220 220 221 222 223 224 225 226 228 229 230 231 233 234 234 235 236 238 240 241 243 244 245 247 249 248 247 247 248 249 250 250 252 253 253 254 255 256 256 256 257 257 258 259 259 260 261 262 263 264 266 267 268 269 270 271 271 272 273 274 275 276 277 279 280 281 282 282 282 282 283 285 285 286 289 291 293 295
211 213 214 215 216 218 219 220 222 222 223 224 225 226 227 228 229 230 232 233 234 235 235 237 238 239 240 242 244 246 247 248 247 246 247 247 248 249 250 252 253 254 255 256 258 259 259 259 260 260 260 261 262 263 263 263 264 265 266 267 268 269 269 270 271 272 272 274 275 276 277 278 280 281 282 283 283 283 283 284 284 286 288 290 293
212 214 215 216 217 219 220 221 222 223 224 225 226 226 227 228 229 230 231 232 233 234 235 236 237 238 239 241 243 246 247 247 246 246 246 246 247 249 250 252 253 255 256 257 259 260 261 261 262 262 262 262 263 264 264 264 265 265 266 267 268 268 269 269 271 272 273 274 275 276 277 278 279 280 280 281 282 282 282 282 282 283 284 286 288
214 215 216 217 218 219 221 222 223 224 225 226 226 227 227 228 229 229 230 231 231 232 234 235 236 237 238 240 242 245 246 245 244 244 245 245 246 248 251 253 254 256 257 259 260 261 262 263 263 264 264 263 264 265 265 265 266 266 267 269 270 270 269 270 271 272 273 274 275 276 277 277 278 278 278 279 280 281 281 281 281 281 281 283 285
216 216 216 217 218 219 221 222 224 225 225 226 226 227 227 228 228 229 230 230 230 231 233 234 236 237 239 240 242 244 245 244 243 243 244 244 245 248 251 254 256 258 259 261 262 263 264 265 266 267 267 267 267 267 267 267 267 268 268 269 270 270 271 271 272 272 272 273 274 275 276 276 277 278 278 277 278 279 279 280 280 279 280 282 284
218 218 217 217 218 219 221 223 224 225 226 226 226 227 228 228 228 229 230 230 231 232 234 235 237 239 239 240 241 242 244 243 242 243 244 245 247 250 253 256 259 261 262 263 265 266 267 268 269 270 270 271 270 270 270 271 271 271 270 270 270 271 272 272 272 273 273 274 274 275 275 276 276 277 277 276 276 277 278 279 279 280 281 283 284
220 219 218 219 219 219 221 223 225 226 226 226 226 227 228 228 229 230 231 232 233 235 236 237 238 239 239 240 241 242 243 243 242 243 245 246 249 253 256 259 262 264 266 267 268 269 270 271 272 272 273 273 273 272 272 273 273 272 272 272 272 272 273 273 272 272 273 274 275 276 276 276 276 276 276 275 276 277 278 278 278 279 280 281 283
221 219 219 220 220 220 221 223 225 226 226 226 227 227 228 229 230 231 232 233 234 235 237 238 238 239 239 240 241 242 244 244 243 244 246 247 251 254 257 260 263 266 268 270 271 273 273 273 273 274 274 275 274 273 273 274 274 274 274 274 274 274 275 275 273 272 273 274 275 276 276 276 275 275 275 275 275 275 276 276 275 275 277 278 280
221 219 219 221 222 221 222 223 225 226 227 228 228 228 229 230 230 231 232 233 235 236 237 238 238 239 240 241 242 243 246 247 247 248 250 250 253 257 259 262 265 267 269 271 272 274 274 274 274 274 275 275 275 274 274 274 274 275 275 276 276 276 277 276 275 275 274 274 274 275 275 275 275 274 274 273 273 273 273 273 273 273 273 275 277
223 220 220 222 223 223 223 224 225 227 228 229 230 230 230 230 231 232 232 234 235 236 236 237 238 239 240 241 243 245 248 250 250 251 254 255 257 261 263 265 267 269 271 273 274 275 276 275 275 275 275 276 276 275 274 274 275 276 276 276 276 277 278 277 276 276 276 275 274 274 274 274 274 274 273 272 271 271 271 272 271 270 271 272 274
225 222 221 223 224 225 225 225 226 228 229 229 229 230 230 230 231 231 232 234 235 236 236 236 238 239 241 243 245 247 250 252 253 254 256 258 260 262 264 266 268 270 272 273 275 276 278 278 278 277 277 277 277 276 276 275 276 277 277 276 277 279 280 279 277 277 276 275 275 274 273 273 273 273 272 272 271 270 270 270 270 269 269 270 271
226 225 224 224 224 226 226 226 227 228 229 229 228 228 228 228 229 230 231 232 234 234 235 236 238 241 243 245 247 249 252 254 255 256 258 259 261 263 266 267 269 272 274 275 277 279 280 280 281 280 279 279 279 279 278 277 277 278 277 277 278 280 280 280 279 277 276 276 276 275 274 273 272 271 271 271 270 269 268 268 268 267 267 267 269
227 226 226 225 225 225 226 226 226 227 228 227 226 225 226 226 227 228 229 231 232 234 235 237 240 242 245 247 250 252 254 256 257 258 259 261 262 264 267 270 271 273 275 276 278 280 281 282 283 282 282 282 282 281 280 279 279 279 279 279 279 280 280 280 279 278 277 276 275 275 274 273 272 271 270 269 269 267 267 266 266 266 265 265 267
225 225 225 225 224 224 224 224 225 225 226 225 224 223 224 225 226 227 229 230 232 234 237 239 241 244 246 249 251 254 255 257 259 260 261 263 265 266 268 271 273 274 276 278 280 282 283 284 285 285 285 285 284 283 282 282 281 282 282 281 281 280 280 279 279 278 277 276 275 274 274 273 272 271 269 268 268 266 265 264 263 263 263 263 264
224 224 224 224 224 224 224 224 224 225 225 224 223 223 224 225 226 228 229 231 233 236 238 241 243 245 247 250 252 255 257 259 261 263 264 265 267 269 270 273 275 276 278 280 282 284 285 286 287 287 288 288 287 286 284 284 283 283 283 283 283 282 281 280 280 278 277 276 275 275 274 273 272 271 269 268 266 264 263 262 262 261 261 261 261
224 224 224 224 224 225 225 225 224 225 226 226 224 225 226 227 228 229 230 232 234 237 239 241 243 246 248 250 253 255 259 262 264 267 268 268 270 271 273 274 276 278 280 282 284 285 286 287 287 288 288 288 288 287 286 285 285 285 285 284 284 283 282 281 281 279 277 276 276 276 275 274 272 270 269 266 264 262 261 260 260 259 258 258 258
224 225 225 225 224 224 225 226 226 226 228 228 227 227 227 228 229 230 232 234 235 238 240 241 244 246 248 251 253 256 260 264 267 269 271 273 274 275 276 278 279 281 284 285 286 287 287 288 288 288 289 289 289 288 288 287 287 286 286 285 284 283 283 282 281 280 279 278 277 276 275 274 272 270 268 265 262 260 259 257 257 256 255 254 255
225 225 225 225 225 225 225 226 226 227 229 230 229 228 229 230 231 232 234 235 237 239 241 242 244 247 250 252 254 257 261 265 269 272 274 276 277 279 280 282 283 285 286 287 288 289 290 290 291 291 291 291 290 290 290 289 288 288 286 285 284 283 282 282 281 280 279 278 277 277 276 275 272 270 267 263 261 259 257 255 255 255 254 252 252
224 225 225 225 226 226 226 226 226 227 229 230 230 230 231 232 233 235 236 237 238 240 242 244 247 250 252 253 256 260 264 268 271 274 276 278 279 281 282 284 285 286 288 289 291 292 293 294 294 294 294 294 293 293 292 291 290 289 288 287 286 285 284 283 282 281 280 279 278 277 276 274 273 270 268 264 262 260 258 256 255 255 253 251 249
223 223 224 225 226 227 228 227 226 226 227 228 230 232 233 233 234 236 239 241 241 241 243 246 249 251 254 256 259 262 265 269 271 274 276 278 280 282 283 285 287 288 291 293 294 295 296 297 297 298 298 298 297 296 296 294 293 292 291 290 289 288 287 285 284 283 282 280 279 277 276 274 273 272 269 267 264 262 259 256 255 255 252 249 248
223 223 224 226 227 229 229 228 227 226 226 226 228 230 232 234 235 238 240 241 242 243 245 248 250 252 255 259 262 264 266 269 271 274 277 279 281 284 286 288 290 292 294 296 297 297 298 299 300 300 301 301 301 300 299 298 297 295 294 293 292 291 290 288 286 285 283 281 280 278 277 275 274 272 271 268 265 262 259 256 255 254 251 248 247
225 225 226 227 229 229 228 228 227 226 226 225 226 227 229 233 237 239 241 241 242 244 246 249 251 253 255 259 262 265 268 270 273 276 279 281 284 286 289 291 293 294 296 297 298 299 301 302 302 302 302 303 303 303 303 301 300 299 298 297 296 295 294 292 290 288 286 284 282 280 278 277 274 272 270 267 263 261 258 255 253 252 250 248 246
226 227 227 228 228 228 228 227 226 225 225 226 226 226 228 232 236 240 243 243 243 244 246 249 252 254 256 259 263 267 270 273 275 278 280 283 286 288 290 292 294 296 297 299 301 302 303 303 304 304 304 305 305 305 305 304 304 303 302 302 300 299 297 294 293 291 288 286 285 283 281 278 275 273 269 265 261 258 255 252 249 248 247 246 243
226 227 227 227 227 227 227 226 225 225 226 227 227 228 229 231 233 237 241 244 246 247 249 250 252 255 258 261 265 269 272 274 277 280 282 285 288 290 291 293 295 297 299 301 303 304 305 305 305 306 306 307 307 307 306 306 306 305 305 304 302 301 299 297 296 294 291 289 287 285 283 280 277 273 268 263 259 255 251 248 245 243 242 241 238
225 226 225 225 226 227 227 226 226 226 226 226 227 228 230 230 232 234 237 241 245 247 250 252 254 256 260 263 267 271 274 277 280 282 284 287 289 291 293 295 297 299 301 303 304 305 305 306 306 306 307 308 308 308 308 308 309 308 307 306 305 303 302 301 299 297 296 294 291 288 286 283 279 273 267 260 255 250 246 243 240 237 236 235 233
224 225 225 225 226 226 226 226 226 225 226 226 227 228 230 231 233 236 238 241 243 245 248 252 256 260 263 266 270 273 276 278 281 284 286 288 291 293 295 297 299 301 302 304 305 305 305 305 306 307 308 309 309 310 311 312 312 312 311 310 309 308 307 305 304 302 301 299 296 293 288 284 279 274 267 259 250 244 240 237 233 230 229 229 226
224 225 226 225 224 224 224 224 224 223 224 225 226 228 230 232 235 238 240 242 243 245 248 253 259 263 267 269 272 275 277 280 282 285 288 290 292 294 296 298 299 301 303 304 305 305 305 305 306 307 308 309 311 312 314 315 315 315 315 315 315 314 314 313 312 309 306 304 301 298 291 284 279 275 268 258 247 239 233 230 226 223 222 220 218
224 223 224 223 222 221 220 221 222 221 222 224 226 228 231 234 237 239 241 243 245 247 250 255 261 266 270 272 274 277 279 282 284 286 289 291 293 295 297 299 300 302 303 304 304 304 305 305 306 308 309 310 312 314 315 316 317 318 320 321 321 321 323 325 325 323 319 315 309 300 291 284 280 272 263 254 243 232 226 224 221 218 215 212 210
223 222 221 221 221 220 220 221 223 223 225 227 228 230 233 236 239 242 243 245 248 250 254 258 263 268 272 274 276 278 280 282 284 287 289 292 294 296 298 299 301 302 302 302 303 303 304 305 307 309 311 312 313 314 315 317 319 321 324 327 329 330 331 334 336 337 337 334 327 312 295 289 286 272 257 246 233 220 215 215 214 211 208 207 206
223 222 221 221 222 222 222 223 225 227 229 231 232 234 236 239 242 244 246 249 251 254 258 262 266 271 274 276 277 279 280 282 283 286 289 292 294 296 298 299 301 302 301 301 302 303 304 305 307 310 311 312 313 314 316 319 321 324 326 329 332 333 334 336 340 345 350 355 358 356 341 327 320 289 244 222 211 206 206 207 207 204 202 202 201
222 222 222 222 222 223 224 225 226 228 231 232 235 237 240 243 246 248 250 253 255 258 262 266 269 272 275 276 278 280 282 283 284 286 289 292 294 296 297 298 299 300 300 300 302 304 304 305 307 310 311 312 313 315 317 320 322 326 329 331 333 334 334 336 341 348 356 5 15 23 29 33 38 53 119 164 176 181 186 192 195 194 193 194 196
220 220 220 220 220 222 223 225 228 231 233 234 237 240 243 246 249 250 253 256 258 260 264 268 271 273 275 277 279 281 283 285 286 288 289 291 294 295 297 297 297 298 298 299 301 303 304 306 307 309 311 312 314 315 317 320 323 327 331 334 336 337 338 339 342 348 354 2 11 23 34 45 54 63 85 126 152 161 167 175 181 185 189 194 199
220 221 221 222 222 224 226 229 232 235 237 239 242 244 247 250 252 254 257 260 261 262 264 268 271 274 276 277 279 281 283 286 288 290 291 292 294 295 295 296 296 296 297 298 300 302 304 305 307 309 311 312 314 316 318 320 323 327 331 335 337 339 342 344 346 349 353 357 4 13 23 35 48 59 75 109 141 158 171 180 185 191 199 206 214
222 223 224 226 227 229 231 234 237 239 241 243 245 248 251 253 255 258 260 263 264 265 267 270 272 275 276 277 278 281 284 286 288 291 292 293 294 294 294 295 295 295 295 296 298 300 302 304 305 307 309 311 313 315 317 319 322 325 328 332 336 338 342 346 349 351 354 357 3 10 16 21 29 37 43 68 141 175 197 207 211 217 223 227 229
224 225 226 228 230 232 234 237 240 242 244 245 247 250 252 254 256 259 261 263 265 267 269 271 273 275 277 278 279 281 284 286 289 291 292 293 294 294 294 294 295 294 294 295 297 298 300 302 303 305 307 309 311 314 316 318 320 323 325 328 331 335 338 342 345 349 351 353 356 2 8 11 12 11 4 355 336 273 244 234 228 227 228 226 223
227 228 230 231 233 235 237 240 242 245 247 248 250 252 254 255 257 260 262 264 266 267 269 271 273 275 277 279 280 282 284 287 289 290 291 292 293 293 293 293 293 294 293 294 295 296 297 299 301 303 304 306 307 310 313 315 318 321 323 326 328 331 334 336 339 341 345 348 349 350 355 1 4 5 2 358 352 333 278 241 228 222 220 220 221
230 232 234 236 237 240 242 244 246 247 249 251 252 254 256 257 260 262 263 265 266 268 270 272 274 275 277 278 280 282 284 286 288 289 289 290 291 291 290 290 291 291 292 292 293 294 296 298 300 302 303 303 305 307 310 313 315 318 320 322 324 326 328 331 333 335 338 343 345 346 348 352 355 357 358 353 342 321 286 260 249 242 238 236 236
233 236 238 239 241 244 246 247 249 251 252 254 255 256 258 260 262 264 265 267 268 269 271 273 274 276 277 278 280 282 284 285 286 287 288 289 289 288 288 288 289 290 290 290 291 292 294 296 298 299 300 301 303 306 308 311 314 317 319 320 321 323 325 327 328 329 331 335 337 338 339 341 340 338 337 335 329 315 292 272 261 255 252 250 248
234 236 238 241 243 245 248 250 251 253 255 256 257 259 260 262 264 265 267 268 269 271 272 274 275 276 277 279 280 282 283 284 286 287 287 287 287 286 286 287 288 288 288 288 289 290 292 293 295 296 297 299 300 302 305 308 310 313 316 318 320 323 326 327 327 326 325 326 327 326 325 325 326 323 319 318 318 312 300 285 274 267 263 261 260
234 236 238 241 243 246 249 251 253 254 255 257 258 260 262 264 265 267 268 270 271 272 273 274 275 276 278 279 279 280 282 284 285 286 286 286 285 284 284 286 287 286 286 286 287 288 289 291 292 294 294 295 297 298 300 302 305 307 308 310 313 317 320 322 322 322 319 318 318 318 316 314 315 314 311 307 304 301 296 290 284 280 276 273 271
236 238 240 242 244 247 249 251 253 254 255 257 259 261 263 264 266 267 268 269 270 271 272 273 274 276 277 277 278 279 281 283 284 284 284 284 283 282 283 284 284 284 284 284 285 286 287 288 289 291 292 292 293 294 295 297 299 301 301 302 305 308 310 312 312 313 311 309 308 308 308 307 307 305 303 299 296 294 292 289 286 284 282 278 275
238 239 241 243 245 247 249 250 251 253 255 257 258 260 262 264 266 267 269 270 271 273 273 274 275 276 277 278 278 278 280 281 281 281 281 281 281 281 281 282 282 282 282 281 282 284 284 285 286 288 290 290 290 291 292 293 295 297 298 299 301 303 304 305 305 305 304 302 300 299 298 298 298 297 296 294 292 291 290 288 286 284 282 278 275